[[{"header":{"parameterUnit":"m.s-1","parameterCategory":1,"la1":30.2991,"la2":30.254,"lo1":-89.0895,"lo2":-89.0444,"dy":0.0017,"dx":0.0017,"nx":28,"ny":28,"refTime":"2025-03-04T09:00:00:Z","depth":0,"parameterNumber":2,"parameterNumberName":"U-component_of_WINDS"},"data":[0,0,0,0,0,0,0,0,0,0,0,0,0,0,0,0,0,0,0,0,0,0,0,0,0,0,0,0,0,0,0,0,0,0,0,0,0,0,0,0,0,0,0,0,0,0,0,0,0,0,0,0,0,0,0,0,0,0,7.0345,7.0346,0,7.0415,7.0416,7.0417,7.0307,7.0303,7.0299,7.0296,7.037,7.0375,7.038,0,0,0,0,0,0,0,0,0,0,0,0,0,7.0118,7.0122,7.0345,7.0346,7.0346,7.0415,7.0416,7.0417,7.0308,7.0303,7.0299,7.0294,7.0368,7.0374,7.0381,0,0,0,0,0,0,0,0,0,0,0,0,0,7.0205,7.0124,7.0345,7.03,7.0297,7.0415,7.0416,7.0417,7.0309,7.0303,7.0297,7.0292,7.0366,7.0374,7.0382,7.0547,0,0,7.0407,7.0411,0,0,0,0,0,0,0,0,7.02,7.0213,7.0306,7.0304,7.03,7.0346,7.0363,7.0461,7.031,7.0304,7.0296,7.0289,7.0367,7.0374,7.04,7.055,7.0553,7.0408,7.0413,7.0416,7.0419,0,0,0,0,0,0,0,7.0194,7.021,7.0372,7.0307,7.0304,7.0277,7.0283,7.0381,7.0367,7.0304,7.0297,7.0306,7.0364,7.0393,7.0401,7.0554,7.0408,7.0415,7.042,7.0423,7.0843,7.0849,0,0,0,0,0,0,7.0193,7.0206,7.037,7.0375,7.0235,7.0286,7.0293,7.0337,7.0365,7.0364,7.0311,7.0301,7.0381,7.0392,7.0403,7.0597,7.0416,7.0424,7.0429,7.0837,7.0844,7.0851,0,0,0,0,0,0,7.0189,7.0209,7.0367,7.0288,7.0306,7.0296,7.0347,7.0342,7.037,7.037,7.0367,7.0343,7.0377,7.0392,7.0512,7.0598,7.0428,7.0435,7.0829,7.0839,7.0848,7.0988,0,0,0,0,0,0,7.0183,7.0208,7.027,7.029,7.0311,7.0475,7.0352,7.0347,7.0384,7.0372,7.0399,7.0398,7.0374,7.05,7.052,7.0607,7.0442,7.0822,7.0834,7.0845,7.0975,7.1,7.1022,0,0,0,0,0,7.0175,7.0307,7.0274,7.0294,7.0388,7.048,7.0491,7.046,7.0392,7.0454,7.0455,7.0397,7.0586,7.0513,7.0535,7.0625,7.0816,7.083,7.0844,7.0965,7.0996,7.1022,0,0,0,0,0,0,7.0298,7.0309,7.0272,7.0415,7.0447,7.0461,7.0539,7.0494,7.0547,7.0533,7.0492,7.0499,7.0628,7.0639,7.0557,7.0786,7.069,7.0709,7.0774,7.0804,7.0827,7.0821,7.0449,0,0,0,0,0,7.0342,7.0415,7.0421,7.0546,7.0564,7.0549,7.0588,7.0561,7.0593,7.0606,7.0615,7.0649,7.0715,7.076,7.0822,7.0977,7.0981,7.105,7.1073,7.1093,7.1109,7.1191,7.1222,7.0897,7.0897,7.0896,0,0,7.0433,7.0448,7.0497,7.0571,7.0593,7.067,7.0561,7.0647,7.0704,7.0619,7.0732,7.0741,7.0776,7.0914,7.0975,7.0927,7.12,7.111,7.1126,7.1132,7.1209,7.1239,7.1267,7.0906,7.0904,7.0903,0,0,7.0637,7.0657,7.0762,7.0787,7.0821,7.081,7.0836,7.0857,7.0859,7.0972,7.0911,7.0978,7.1094,7.1121,7.115,7.1367,7.1316,7.1388,7.151,7.1591,7.1617,7.1639,7.1715,7.1743,7.1405,7.1405,7.1405,0,7.0746,7.0859,7.0823,7.0913,7.0948,7.0875,7.0982,7.1007,7.1061,7.1086,7.1032,7.1175,7.1194,7.1337,7.139,7.1416,7.1444,7.1384,7.1616,7.1638,7.1658,7.173,7.1759,7.1413,7.1412,7.1412,7.1411,0,7.099,7.107,7.1151,7.1204,7.1248,7.1346,7.1326,7.1375,7.1345,7.134,7.1456,7.1476,7.154,7.1572,7.1544,7.1712,7.1681,7.1622,7.1524,7.1698,7.1765,7.1793,7.1426,7.1422,7.142,7.1418,0,0,7.1273,7.1305,7.1335,7.1358,7.1391,7.1452,7.1548,7.161,7.1652,7.1692,7.1771,7.1871,7.1817,7.185,7.1824,7.1895,7.2064,7.1827,7.1827,7.1869,7.225,7.2293,7.2325,7.2031,7.2037,7.2041,7.2246,0,7.1476,7.1639,7.161,7.177,7.1842,7.1775,7.1858,7.1888,7.1887,7.1948,7.1947,7.2018,7.1941,7.1961,7.2028,7.2029,7.214,7.2014,7.2104,7.2108,7.2096,7.236,7.2406,7.2599,7.2272,7.2277,7.228,0,7.1734,7.1782,7.1949,7.1971,7.2,7.2075,7.213,7.219,7.2222,7.2216,7.2254,7.2215,7.2311,7.2213,7.2344,7.2259,7.2294,7.2301,7.2307,7.2313,7.2203,7.2372,7.266,7.2688,7.2321,7.2318,7.2315,0,7.1922,7.2029,7.2142,7.2164,7.2193,7.2247,7.2262,7.2288,7.2328,7.2376,7.2401,7.246,7.2493,7.254,7.2518,7.2449,7.2653,7.2553,7.265,7.2651,7.2695,7.2692,7.2991,7.272,7.272,7.2719,7.2719,0,7.215,7.2254,7.2227,7.2297,7.2412,7.2378,7.2493,7.2499,7.2524,7.2594,7.254,7.2607,7.2575,7.264,7.2624,7.2734,7.275,7.2747,7.2742,7.2751,7.2752,7.2773,7.2758,7.2727,7.2725,7.2724,7.2723,0,7.2378,7.2364,7.2483,7.2501,7.2508,7.2592,7.2606,7.2672,7.2667,7.2756,7.2775,7.2767,7.2841,7.2824,7.2905,7.2894,7.3033,7.3011,7.3022,7.3016,7.3113,7.3104,7.3435,7.3476,7.3181,7.3184,7.3186,0,7.2524,7.2603,7.2629,7.2671,7.269,7.276,7.2799,7.277,7.2814,7.2857,7.2917,7.2986,7.3039,7.316,7.3162,7.3223,7.3202,7.3314,7.3211,7.3218,7.3202,7.3197,7.3204,7.3334,7.3337,7.334,7.3342,0,7.2784,7.2773,7.2832,7.289,7.2939,7.2983,7.3021,7.306,7.3033,7.3085,7.316,7.3201,7.3283,7.3352,7.3409,7.3424,7.3379,7.3375,7.34,7.341,7.3412,7.3411,7.3076,7.3367,7.3364,7.3362,7.3361,7.336,7.2974,7.3041,7.307,7.3137,7.3164,7.3201,7.3263,7.3266,7.3327,7.3391,7.3371,7.3456,7.3487,7.3558,7.3581,7.3647,7.3605,7.3642,7.3651,7.366,7.3671,7.3403,7.3657,7.3656,7.3656,7.3655,7.3655,0,7.323,7.3246,7.3308,7.3364,7.3418,7.3371,7.3412,7.3459,7.3534,7.3567,7.3621,7.3706,7.3773,7.378,7.3843,7.3895,7.3876,7.3912,7.3907,7.3911,7.3706,7.3677,7.3926,7.3926,7.3926,7.3926,7.3926,7.3926,7.3369,7.3479,7.3472,7.3595,7.3609,7.3691,7.3719,7.3753,7.3779,7.3877,7.3932,7.3936,7.3959,7.4023,7.4082,7.4083,7.4108,7.4152,7.4145,7.3953,7.3926,7.39,7.3872,7.4158,7.4159,7.4344,7.4345,7.4347]},{"header":{"parameterUnit":"m.s-1","parameterCategory":1,"la1":30.2991,"la2":30.254,"lo1":-89.0895,"lo2":-89.0444,"dy":0.0017,"dx":0.0017,"nx":28,"ny":28,"refTime":"2025-03-04T09:00:00:Z","depth":0,"parameterNumber":3,"parameterNumberName":"V-component_of_WINDS"},"data":[0,0,0,0,0,0,0,0,0,0,0,0,0,0,0,0,0,0,0,0,0,0,0,0,0,0,0,0,0,0,0,0,0,0,0,0,0,0,0,0,0,0,0,0,0,0,0,0,0,0,0,0,0,0,0,0,0,0,3.6425,3.6426,0,3.6541,3.6542,3.6543,3.653,3.6528,3.6526,3.6524,3.6643,3.6647,3.6652,0,0,0,0,0,0,0,0,0,0,0,0,0,3.6193,3.6197,3.6425,3.6426,3.6428,3.654,3.6542,3.6543,3.653,3.6528,3.6525,3.6523,3.6641,3.6647,3.6653,0,0,0,0,0,0,0,0,0,0,0,0,0,3.6299,3.6198,3.6425,3.6435,3.6437,3.654,3.6542,3.6544,3.653,3.6528,3.6525,3.6522,3.6639,3.6646,3.6653,3.6754,0,0,3.6676,3.6679,0,0,0,0,0,0,0,0,3.6293,3.6308,3.6432,3.6434,3.6437,3.6518,3.6503,3.6614,3.6531,3.6495,3.6524,3.6521,3.6603,3.6613,3.6641,3.676,3.6765,3.6676,3.6681,3.6684,3.6686,0,0,0,0,0,0,0,3.6286,3.6303,3.6471,3.6434,3.6437,3.6433,3.6445,3.6524,3.6563,3.6498,3.6497,3.6511,3.6604,3.6634,3.6644,3.6766,3.6676,3.6683,3.6687,3.669,3.6974,3.6977,0,0,0,0,0,0,3.6276,3.6297,3.6467,3.6474,3.6357,3.644,3.6453,3.6495,3.6562,3.657,3.6513,3.651,3.6623,3.6635,3.6648,3.6771,3.6684,3.6691,3.6695,3.6971,3.6974,3.6978,0,0,0,0,0,0,3.6271,3.6291,3.6462,3.6385,3.6407,3.6447,3.6493,3.6498,3.6528,3.6574,3.6581,3.6537,3.6621,3.6638,3.6728,3.6775,3.6694,3.6701,3.6967,3.6972,3.6976,3.7017,0,0,0,0,0,0,3.6264,3.629,3.6328,3.6386,3.6411,3.6541,3.6496,3.6503,3.6541,3.6538,3.6598,3.6605,3.662,3.6717,3.6735,3.6783,3.6706,3.6963,3.6969,3.6975,3.7012,3.7023,3.7032,0,0,0,0,0,3.6256,3.6335,3.6331,3.6351,3.646,3.6543,3.6557,3.6573,3.6545,3.6584,3.6613,3.6603,3.6766,3.6726,3.6747,3.6798,3.696,3.6967,3.6974,3.7007,3.7021,3.7032,0,0,0,0,0,0,3.6282,3.6343,3.6338,3.6439,3.6486,3.6541,3.6591,3.6587,3.6643,3.6638,3.6655,3.6668,3.676,3.6788,3.6742,3.6899,3.6859,3.6871,3.6878,3.6891,3.6901,3.6892,3.6712,0,0,0,0,0,3.6299,3.6362,3.6412,3.6495,3.6519,3.6551,3.6588,3.6596,3.6645,3.6665,3.6701,3.675,3.6812,3.6853,3.6912,3.7015,3.7028,3.706,3.707,3.7079,3.7089,3.7146,3.716,3.7001,3.7001,3.7001,0,0,3.6336,3.6377,3.6415,3.6502,3.6539,3.6603,3.6568,3.6637,3.6685,3.6676,3.6764,3.6792,3.6847,3.6944,3.6988,3.697,3.7135,3.7088,3.7094,3.71,3.7154,3.7169,3.7183,3.7006,3.7005,3.7004,0,0,3.6436,3.6473,3.6547,3.6585,3.6642,3.6663,3.6681,3.6737,3.6755,3.6843,3.6837,3.6894,3.7001,3.7041,3.7075,3.7189,3.7182,3.7208,3.7261,3.7316,3.7329,3.734,3.7381,3.7396,3.7217,3.7217,3.7218,0,3.6474,3.6571,3.6585,3.6656,3.6694,3.6688,3.6763,3.68,3.6874,3.69,3.6878,3.7012,3.7048,3.7155,3.7183,3.721,3.7231,3.7202,3.7326,3.7337,3.7348,3.7388,3.7403,3.722,3.722,3.722,3.7219,0,3.6616,3.6683,3.6735,3.6807,3.6851,3.6923,3.6949,3.6992,3.6995,3.7018,3.7108,3.7152,3.722,3.7246,3.725,3.7353,3.734,3.7322,3.7283,3.7366,3.7403,3.7419,3.7224,3.7223,3.7223,3.7222,0,0,3.6736,3.6814,3.6833,3.6866,3.6928,3.6981,3.7052,3.712,3.7156,3.7207,3.7268,3.7358,3.7341,3.738,3.7389,3.7437,3.7526,3.7413,3.7415,3.7433,3.7642,3.7657,3.7674,3.7521,3.7524,3.7526,3.7638,0,3.6842,3.697,3.6985,3.7099,3.7161,3.7156,3.7219,3.7264,3.7287,3.7343,3.7368,3.7432,3.7405,3.7428,3.7476,3.7505,3.7568,3.7497,3.7578,3.7581,3.7566,3.7693,3.7709,3.7812,3.7653,3.7655,3.7657,0,3.6984,3.7039,3.7159,3.7213,3.7239,3.7296,3.7358,3.7412,3.7463,3.7476,3.7519,3.7522,3.7596,3.7553,3.7656,3.7607,3.7641,3.766,3.7664,3.7673,3.7625,3.7707,3.7846,3.7861,3.768,3.7678,3.7677,0,3.706,3.7164,3.725,3.7277,3.7342,3.7382,3.7411,3.7459,3.7498,3.7553,3.7579,3.7641,3.7676,3.7724,3.7743,3.771,3.7845,3.7803,3.7859,3.7858,3.7888,3.7886,3.8035,3.7908,3.7908,3.7908,3.7908,0,3.7178,3.7252,3.7285,3.7338,3.742,3.7436,3.7517,3.7544,3.7587,3.7645,3.7644,3.7698,3.772,3.7777,3.7793,3.7876,3.7891,3.7904,3.7908,3.7905,3.7904,3.7928,3.7922,3.7912,3.7911,3.791,3.791,0,3.7278,3.7303,3.7396,3.745,3.7465,3.7523,3.7569,3.762,3.7642,3.7715,3.7733,3.7768,3.7836,3.786,3.7942,3.7952,3.8049,3.8046,3.8032,3.8033,3.8087,3.8082,3.8258,3.8282,3.8138,3.814,3.8141,0,3.7352,3.7409,3.7469,3.7507,3.7538,3.76,3.764,3.7658,3.77,3.7762,3.7806,3.7873,3.7928,3.8036,3.8069,3.8132,3.8131,3.8188,3.814,3.8136,3.8132,3.8129,3.8135,3.8197,3.8199,3.82,3.8201,0,3.7481,3.7491,3.7549,3.7612,3.7659,3.771,3.7758,3.779,3.7815,3.7862,3.7931,3.7974,3.8058,3.8125,3.8189,3.8218,3.8214,3.8215,3.8232,3.823,3.822,3.8227,3.8057,3.8212,3.821,3.821,3.8209,3.8209,3.7571,3.7621,3.7671,3.7736,3.7774,3.782,3.787,3.7899,3.7957,3.8027,3.8034,3.8109,3.8158,3.8244,3.8276,3.8335,3.8319,3.8342,3.8348,3.8354,3.8359,3.821,3.8346,3.8346,3.8346,3.8346,3.8345,0,3.7701,3.7732,3.7792,3.786,3.7911,3.7902,3.7955,3.7998,3.8064,3.8111,3.8165,3.8244,3.8309,3.8347,3.8412,3.8452,3.8451,3.8468,3.8466,3.8473,3.8369,3.8349,3.8467,3.8467,3.8467,3.8467,3.8467,3.8467,3.7774,3.7859,3.7874,3.7978,3.8009,3.8083,3.8114,3.8156,3.8193,3.8282,3.8336,3.836,3.8403,3.8471,3.853,3.8539,3.8564,3.8582,3.859,3.8493,3.848,3.8468,3.8449,3.8587,3.8587,3.869,3.869,3.8691]}]]